Regional Weather Roundup
Issued by NWS

Home | Current Version | Previous Version | Graphics & Text | Print | Product List | Glossary On
Versions: 1 2 3 4 5 6 7 8 9 10 11 12 13 14 15 16 17 18 19 20 21 22 23 24 25 26 27 28 29 30 31 32 33 34 35 36 37 38 39 40 41 42 43 44 45 46 47 48 49
000
ASUS45 KCYS 022110
RWRWY

WYOMING REGIONAL WEATHER ROUNDUP
NATIONAL WEATHER SERVICE CHEYENNE WY
300 PM MDT SUN AUG 02 2015

NOTE:  "FAIR" INDICATES FEW OR NO CLOUDS BELOW 12,000 FEET
WITH NO SIGNIFICANT WEATHER AND/OR OBSTRUCTIONS TO VISIBILITY.

WYZ001-022200-
YELLOWSTONE NATIONAL PARK

CITY           SKY/WX    TMP DP  RH WIND       PRES   REMARKS
LK YELLOWSTONE   N/A     74  37  26 VRB3      30.31F
W YELLOWSTONE  NOT AVBL

$$
WYZ002>013-054>058-071-098>099-022200-
NORTHERN WYOMING

CITY           SKY/WX    TMP DP  RH WIND       PRES   REMARKS
JACKSON        SUNNY     84  28  13 CALM      30.17F
CODY           FAIR      82  45  26 N14G21    30.09F
GREYBULL       FAIR      97  28   8 N8        29.96F HX  91
WORLAND        FAIR      96  30   9 NE5       29.99F HX  90
SHERIDAN       FAIR      90  39  16 W13       30.03F
BUFFALO        FAIR      87  39  18 N23G29    30.09F
GILLETTE       FAIR      91  43  18 NE7G17    30.01F
HULETT         FAIR      84  48  28 E13       30.04F
NEWCASTLE      FAIR      91  39  16 MISG      29.98F

$$
WYZ014>020-022>026-101>103-022200-
CENTRAL WYOMING

CITY           SKY/WX    TMP DP  RH WIND       PRES   REMARKS
BIG PINEY      FAIR      85  23  10 VRB7      30.20F
PINEDALE       FAIR      82  25  12 NW7       30.21F
DUBOIS         FAIR      82  21  10 CALM      30.21F
LANDER         FAIR      90  25   9 VRB6      30.08F
RIVERTON       FAIR      91  24   9 SE6       30.09F
CASPER         FAIR      93  19   7 MISG      30.06F
DOUGLAS        FAIR      96  29   9 VRB7G18   30.03F HX  90

$$
WYZ021-027>030-104>119-022200-
SOUTHERN WYOMING

CITY           SKY/WX    TMP DP  RH WIND       PRES   REMARKS
EVANSTON       FAIR      88  25  10 E15       30.17F
KEMMERER       MOCLDY   N/A N/A N/A CALM      30.21F
FORT BRIDGER   CLEAR     88  25  10 CALM      30.20F
ROCK SPRINGS   FAIR      86  27  11 CALM      30.15F
DIXON          FAIR      91  30  11 SW8       30.16F
RAWLINS        FAIR      88  27  11 VRB7      30.17F
SARATOGA       FAIR      88  30  12 NW8       30.20F
LARAMIE        PTSUNNY   83  33  16 NE7       30.21F
CHEYENNE       FAIR      86  45  23 S13       30.15S
TORRINGTON     FAIR      94  40  15 E16       29.99F HX  90
PINE BLUFFS    FAIR      77  50  38 SW22      30.08R

$$



USA.gov is the U.S. government's official web portal to all federal, state and local government web resources and services.